When you browse on this site, cookies collect data to enhance your experience and personalize the content and advertising you see.
Visit our Privacy Policy to learn more. By continuing to use the site, you agree to this use of cookies and data.
  • In Belgien
  • Länderverzeichnis
  • Für 7 Tage
  • Wassertemperatur
  • Satellitenkarten
  • Wetterkarte
  • Widgets
  • user-avatar
    Anmelden

    Stündliche Wetter Lezhe

    Heute, 21 November, Mittwoch

    Zeit Temperatur Niederschläge Wind Luftdruck Luftfeuchtigkeit
    00:00 +13°C° 2.9 mm 4 m/S 731 mmHg 92%
    01:00 +13°C° 0 mm 2 m/S 732 mmHg 94%
    02:00 +13°C° 3 mm 2 m/S 731 mmHg 95%
    03:00 +13°C° 3 mm 2 m/S 731 mmHg 95%
    04:00 +13°C° 3 mm 2 m/S 731 mmHg 95%
    05:00 +13°C° 0.7 mm 2 m/S 731 mmHg 94%
    06:00 +13°C° 0.7 mm 2 m/S 732 mmHg 93%
    07:00 +12°C° 0 mm 2 m/S 732 mmHg 93%
    08:00 +13°C° 0.8 mm 2 m/S 732 mmHg 92%
    09:00 +13°C° 0.8 mm 2 m/S 733 mmHg 92%
    10:00 +13°C° 0.8 mm 1 m/S 733 mmHg 91%
    11:00 +14°C° 0.6 mm 1 m/S 733 mmHg 88%
    12:00 +14°C° 0.6 mm 1 m/S 733 mmHg 86%
    13:00 +15°C° 0.6 mm 1 m/S 734 mmHg 83%
    14:00 +14°C° 0.1 mm 1 m/S 734 mmHg 84%
    15:00 +14°C° 0.1 mm 1 m/S 734 mmHg 86%
    16:00 +14°C° 0.1 mm 1 m/S 734 mmHg 87%
    17:00 +13°C° 0 mm 1 m/S 735 mmHg 89%
    18:00 +13°C° 0 mm 1 m/S 735 mmHg 90%
    19:00 +12°C° 0 mm 1 m/S 735 mmHg 91%
    20:00 +12°C° 0.1 mm 1 m/S 736 mmHg 91%
    21:00 +12°C° 0.1 mm 1 m/S 736 mmHg 91%
    22:00 +12°C° 0.1 mm 1 m/S 737 mmHg 91%
    23:00 +11°C° 0 mm 1 m/S 737 mmHg 90%

    Morgen, 22 November, Donnerstag

    Zeit Temperatur Niederschläge Wind Luftdruck Luftfeuchtigkeit
    00:00 +11°C° 0 mm 1 m/S 737 mmHg 90%
    01:00 +11°C° 0 mm 1 m/S 737 mmHg 90%
    02:00 +11°C° 0 mm 1 m/S 737 mmHg 89%
    03:00 +11°C° 0 mm 1 m/S 737 mmHg 89%
    04:00 +11°C° 0 mm 1 m/S 737 mmHg 89%
    05:00 +10°C° 0 mm 1 m/S 737 mmHg 89%
    06:00 +10°C° 0 mm 1 m/S 738 mmHg 88%
    07:00 +9°C° 0 mm 2 m/S 738 mmHg 88%
    08:00 +12°C° 0 mm 1 m/S 738 mmHg 83%
    09:00 +13°C° 0 mm 1 m/S 738 mmHg 77%
    10:00 +15°C° 0 mm 1 m/S 739 mmHg 72%
    11:00 +15°C° 0 mm 1 m/S 738 mmHg 70%
    12:00 +16°C° 0 mm 1 m/S 738 mmHg 68%
    13:00 +16°C° 0 mm 1 m/S 738 mmHg 66%
    14:00 +15°C° 0 mm 1 m/S 738 mmHg 71%
    15:00 +14°C° 0 mm 1 m/S 739 mmHg 75%
    16:00 +13°C° 0 mm 1 m/S 739 mmHg 80%
    17:00 +13°C° 0 mm 1 m/S 739 mmHg 82%
    18:00 +12°C° 0 mm 1 m/S 740 mmHg 84%
    19:00 +12°C° 0 mm 1 m/S 740 mmHg 86%
    20:00 +11°C° 0 mm 1 m/S 740 mmHg 86%
    21:00 +11°C° 0 mm 1 m/S 741 mmHg 85%
    22:00 +11°C° 0 mm 1 m/S 741 mmHg 85%
    23:00 +11°C° 0 mm 1 m/S 741 mmHg 85%

    übermorgen, 23 November, Freitag

    Zeit Temperatur Niederschläge Wind Luftdruck Luftfeuchtigkeit
    00:00 +10°C° 0 mm 1 m/S 741 mmHg 84%
    01:00 +10°C° 0 mm 1 m/S 741 mmHg 84%
    02:00 +10°C° 0 mm 1 m/S 741 mmHg 84%
    03:00 +10°C° 0 mm 1 m/S 742 mmHg 83%
    04:00 +10°C° 0 mm 1 m/S 742 mmHg 83%
    05:00 +10°C° 0 mm 1 m/S 742 mmHg 83%
    06:00 +9°C° 0 mm 1 m/S 742 mmHg 82%
    07:00 +9°C° 0 mm 1 m/S 742 mmHg 82%
    08:00 +11°C° 0 mm 1 m/S 743 mmHg 75%
    09:00 +13°C° 0 mm 1 m/S 743 mmHg 69%
    10:00 +15°C° 0 mm 1 m/S 743 mmHg 62%
    11:00 +15°C° 0 mm 1 m/S 743 mmHg 59%
    12:00 +16°C° 0 mm 1 m/S 743 mmHg 57%
    13:00 +16°C° 0 mm 1 m/S 742 mmHg 54%
    14:00 +15°C° 0 mm 1 m/S 742 mmHg 59%
    15:00 +14°C° 0 mm 1 m/S 742 mmHg 64%
    16:00 +13°C° 0 mm 1 m/S 742 mmHg 69%
    17:00 +13°C° 0 mm 1 m/S 742 mmHg 71%
    18:00 +12°C° 0 mm 1 m/S 743 mmHg 73%
    19:00 +11°C° 0 mm 1 m/S 743 mmHg 75%
    20:00 +11°C° 0 mm 1 m/S 743 mmHg 76%
    21:00 +10°C° 0 mm 2 m/S 743 mmHg 77%
    22:00 +10°C° 0 mm 2 m/S 743 mmHg 77%
    23:00 +9°C° 0 mm 2 m/S 743 mmHg 77%

    24 November, Samstag

    Zeit Temperatur Niederschläge Wind Luftdruck Luftfeuchtigkeit
    00:00 +9°C° 0 mm 2 m/S 743 mmHg 77%
    01:00 +9°C° 0 mm 2 m/S 743 mmHg 77%
    02:00 +9°C° 0 mm 2 m/S 742 mmHg 76%
    03:00 +9°C° 0 mm 2 m/S 742 mmHg 76%
    04:00 +9°C° 0 mm 2 m/S 742 mmHg 75%
    05:00 +9°C° 0 mm 2 m/S 742 mmHg 74%
    06:00 +9°C° 0 mm 2 m/S 741 mmHg 74%
    07:00 +9°C° 0 mm 2 m/S 741 mmHg 73%
    08:00 +12°C° 0 mm 2 m/S 741 mmHg 69%
    09:00 +13°C° 0 mm 2 m/S 741 mmHg 65%
    10:00 +14°C° 0 mm 2 m/S 741 mmHg 61%
    11:00 +15°C° 0 mm 2 m/S 741 mmHg 60%
    12:00 +14°C° 0 mm 3 m/S 740 mmHg 59%
    13:00 +16°C° 0 mm 3 m/S 740 mmHg 59%
    14:00 +14°C° 0.2 mm 3 m/S 740 mmHg 64%
    15:00 +13°C° 0.2 mm 3 m/S 739 mmHg 69%
    16:00 +13°C° 0.2 mm 2 m/S 739 mmHg 74%
    17:00 +13°C° 0.5 mm 2 m/S 739 mmHg 75%
    18:00 +13°C° 0.5 mm 2 m/S 739 mmHg 75%
    19:00 +13°C° 0.5 mm 2 m/S 739 mmHg 76%
    20:00 +12°C° 0.4 mm 3 m/S 739 mmHg 77%
    21:00 +12°C° 0.4 mm 3 m/S 739 mmHg 78%
    22:00 +12°C° 0.4 mm 3 m/S 739 mmHg 79%
    23:00 +12°C° 0.3 mm 3 m/S 739 mmHg 80%

    25 November, Sonntag

    Zeit Temperatur Niederschläge Wind Luftdruck Luftfeuchtigkeit
    00:00 +13°C° 0.3 mm 2 m/S 739 mmHg 81%
    01:00 +13°C° 0.3 mm 2 m/S 739 mmHg 82%
    02:00 +13°C° 0.1 mm 2 m/S 738 mmHg 83%
    03:00 +12°C° 0.1 mm 2 m/S 738 mmHg 84%
    04:00 +12°C° 0.1 mm 2 m/S 738 mmHg 86%
    05:00 +12°C° 0 mm 2 m/S 738 mmHg 86%
    06:00 +12°C° 0 mm 2 m/S 738 mmHg 87%
    07:00 +12°C° 0 mm 2 m/S 738 mmHg 87%
    08:00 +13°C° 0 mm 2 m/S 737 mmHg 82%
    09:00 +14°C° 0 mm 2 m/S 737 mmHg 77%
    10:00 +16°C° 0 mm 2 m/S 737 mmHg 71%
    11:00 +16°C° 0.1 mm 2 m/S 736 mmHg 69%
    12:00 +17°C° 0.1 mm 2 m/S 735 mmHg 66%
    13:00 +17°C° 0.1 mm 2 m/S 735 mmHg 64%
    14:00 +17°C° 0.3 mm 2 m/S 734 mmHg 69%
    15:00 +16°C° 0.3 mm 2 m/S 734 mmHg 73%
    16:00 +15°C° 0.3 mm 2 m/S 733 mmHg 78%
    17:00 +14°C° 1.5 mm 2 m/S 733 mmHg 81%
    18:00 +14°C° 1.5 mm 2 m/S 733 mmHg 83%
    19:00 +14°C° 1.5 mm 2 m/S 733 mmHg 86%
    20:00 +14°C° 1.8 mm 2 m/S 732 mmHg 87%
    21:00 +14°C° 1.8 mm 2 m/S 732 mmHg 87%
    22:00 +12°C° 1.8 mm 3 m/S 732 mmHg 88%
    23:00 +13°C° 2.2 mm 2 m/S 731 mmHg 88%

    26 November, Montag

    Zeit Temperatur Niederschläge Wind Luftdruck Luftfeuchtigkeit
    00:00 +13°C° 2.2 mm 2 m/S 730 mmHg 89%
    01:00 +13°C° 2.2 mm 2 m/S 730 mmHg 90%
    02:00 +13°C° 3 mm 2 m/S 729 mmHg 91%
    03:00 +13°C° 3 mm 2 m/S 729 mmHg 92%
    04:00 +13°C° 3 mm 1 m/S 729 mmHg 93%
    05:00 +13°C° 1.2 mm 1 m/S 729 mmHg 94%
    06:00 +13°C° 1.2 mm 1 m/S 729 mmHg 94%
    07:00 +13°C° 1.2 mm 2 m/S 729 mmHg 95%
    08:00 +13°C° 1 mm 2 m/S 729 mmHg 94%
    09:00 +13°C° 1 mm 2 m/S 729 mmHg 94%
    10:00 +13°C° 1 mm 2 m/S 730 mmHg 93%
    11:00 +14°C° 0.4 mm 2 m/S 730 mmHg 92%
    12:00 +14°C° 0.4 mm 2 m/S 730 mmHg 90%
    13:00 +14°C° 0.4 mm 2 m/S 730 mmHg 89%
    14:00 +14°C° 0.1 mm 2 m/S 730 mmHg 90%
    15:00 +14°C° 0.1 mm 2 m/S 730 mmHg 90%
    16:00 +13°C° 0.1 mm 2 m/S 730 mmHg 91%
    17:00 +13°C° 0.1 mm 2 m/S 731 mmHg 92%
    18:00 +13°C° 0.1 mm 1 m/S 731 mmHg 92%
    19:00 +12°C° 0.1 mm 1 m/S 731 mmHg 93%
    20:00 +12°C° 0.1 mm 1 m/S 732 mmHg 93%
    21:00 +12°C° 0.1 mm 2 m/S 732 mmHg 94%
    22:00 +10°C° 0.1 mm 2 m/S 732 mmHg 94%
    23:00 +10°C° 0.3 mm 2 m/S 732 mmHg 93%
    Mehr zeigen